Location: Bonny Doon Airfield
(37.0704°N, 122.1252°W)
Time: 15:17:01
(UTC-08:00)

Vanguard 1 Rocket - Pass Details

Date: 25 October 2017
Orbit: 655 x 4222 km, 34.3° (Epoch: 21 November)

Event Time Altitude Azimuth Distance (km) Brightness Sun altitude
Rises 02:25:29 0° 193° (SSW) 7,990 - -57.6°
Reaches altitude 10° 02:35:47 10° 172° (S) 6,236 - -56.1°
Exits shadow 02:43:17 14° 148° (SSE) 5,187 11.1 -54.9°
Maximum altitude 02:43:23 14° 148° (SSE) 5,176 11.1 -54.9°
Drops below altitude 10° 02:49:26 10° 122° (ESE) 4,817 11.2 -53.9°
Sets 02:55:03 0° 99° (E) 5,111 11.6 -53.0°
